H1 CPF 2 NER 2024 4 24 9 115 01 glonass129 H2 1106402 9129 37868 2024 4 24 0 0 0 2024 4 27 23 45 0 900 1 1 0 0 0 1 H9 10 0 60424 0.00000 0 -13737562.168 -8838167.692 -19561560.458 10 0 60424 900.00000 0 -14794855.610 -10889996.997 -17672859.835 10 0 60424 1800.00000 0 -15877102.719 -12635860.030 -15440222.427 10 0 60424 2700.00000 0 -16926179.711 -14049964.261 -12907312.892 10 0 60424 3600.00000 0 -17881958.083 -15119372.518 -10123574.606 10 0 60424 4500.00000 0 -18684918.493 -15844274.656 -7143250.791 10 0 60424 5400.00000 0 -19278750.721 -16237715.461 -4024317.403 10 0 60424 6300.00000 0 -19612830.155 -16324793.735 -827349.556 10 0 60424 7200.00000 0 -19644467.101 -16141369.387 2385655.828 10 0 60424 8100.00000 0 -19340835.323 -15732335.705 5552478.055 10 0 60424 9000.00000 0 -18680500.114 -15149531.532 8611868.373 10 0 60424 9900.00000 0 -17654483.229 -14449382.437 11504720.871 10 0 60424 10800.00000 0 -16266821.484 -13690370.507 14175197.071 10 0 60424 11700.00000 0 -14534596.701 -12930438.687 16571784.050 10 0 60424 12600.00000 0 -12487436.402 -12224437.583 18648267.465 10 0 60424 13500.00000 0 -10166505.998 -11621720.354 20364602.773 10 0 60424 14400.00000 0 -7623033.641 -11163984.637 21687669.860 10 0 60424 15300.00000 0 -4916427.541 -10883450.219 22591898.395 10 0 60424 16200.00000 0 -2112061.730 -10801447.261 23059753.351 10 0 60424 17100.00000 0 721180.643 -10927473.250 23082072.370 10 0 60424 18000.00000 0 3513507.592 -11258757.937 22658248.839 10 0 60424 18900.00000 0 6196857.415 -11780355.074 21796256.855 10 0 60424 19800.00000 0 8707470.054 -12465758.492 20512516.607 10 0 60424 20700.00000 0 10988286.268 -13278018.709 18831601.165 10 0 60424 21600.00000 0 12991076.585 -14171315.722 16785788.253 10 0 60424 22500.00000 0 14678212.329 -15092924.559 14414463.242 10 0 60424 23400.00000 0 16024004.873 -15985493.410 11763382.424 10 0 60424 24300.00000 0 17015556.525 -16789540.420 8883808.492 10 0 60424 25200.00000 0 17653086.173 -17446065.200 5831532.930 10 0 60424 26100.00000 0 17949714.437 -17899165.172 2665802.867 10 0 60424 27000.00000 0 17930715.769 -18098545.635 -551827.585 10 0 60424 27900.00000 0 17632267.593 -18001815.893 -3758699.281 10 0 60424 28800.00000 0 17099748.322 -17576471.979 -6892279.201 10 0 60424 29700.00000 0 16385655.850 -16801479.239 -9891395.610 10 0 60424 30600.00000 0 15547234.916 -15668384.683 -12697451.397 10 0 60424 31500.00000 0 14643914.819 -14181908.988 -15255589.822 10 0 60424 32400.00000 0 13734667.584 -12359990.403 -17515787.780 10 0 60424 33300.00000 0 12875400.418 -10233276.445 -19433853.172 10 0 60424 34200.00000 0 12116494.950 -7844083.328 -20972305.033 10 0 60424 35100.00000 0 11500599.429 -5244866.121 -22101117.835 10 0 60424 36000.00000 0 11060768.863 -2496263.797 -22798314.478 10 0 60424 36900.00000 0 10819032.866 335198.290 -23050395.906 10 0 60424 37800.00000 0 10785452.161 3179651.408 -22852599.066 10 0 60424 38700.00000 0 10957703.306 5966564.558 -22208978.678 10 0 60424 39600.00000 0 11321208.226 8627450.666 -21132312.124 10 0 60424 40500.00000 0 11849801.586 11098484.279 -19643830.576 10 0 60424 41400.00000 0 12506905.857 13322921.401 -17772783.013 10 0 60424 42300.00000 0 13247162.367 15253221.030 -15555843.255 10 0 60424 43200.00000 0 14018447.295 16852781.091 -13036373.204 10 0 60424 44100.00000 0 14764185.572 18097218.315 -10263558.237 10 0 60424 45000.00000 0 15425863.420 18975141.122 -7291433.110 10 0 60424 45900.00000 0 15945632.424 19488386.309 -4177818.645 10 0 60424 46800.00000 0 16268894.776 19651712.930 -983190.856 10 0 60424 47700.00000 0 16346760.785 19491969.497 2230494.788 10 0 60424 48600.00000 0 16138275.745 19046772.435 5401000.883 10 0 60424 49500.00000 0 15612323.508 18362753.718 8467004.419 10 0 60424 50400.00000 0 14749128.015 17493452.966 11369269.340 10 0 60424 51300.00000 0 13541291.126 16496943.400 14051773.840 10 0 60424 52200.00000 0 11994324.360 15433291.276 16462772.126 10 0 60424 53100.00000 0 10126653.085 14361954.596 18555771.962 10 0 60424 54000.00000 0 7969093.096 13339228.705 20290411.173 10 0 60424 54900.00000 0 5563820.841 12415843.903 21633218.229 10 0 60424 55800.00000 0 2962878.861 11634813.619 22558244.120 10 0 60424 56700.00000 0 226276.498 11029621.274 23047554.860 10 0 60424 57600.00000 0 -2580237.916 10622820.126 23091576.193 10 0 60424 58500.00000 0 -5387643.980 10425103.753 22689284.259 10 0 60424 59400.00000 0 -8126256.131 10434885.846 21848238.286 10 0 60424 60300.00000 0 -10728365.480 10638407.534 20584453.738 10 0 60424 61200.00000 0 -13130809.558 11010369.060 18922116.765 10 0 60424 62100.00000 0 -15277365.240 11515061.277 16893143.429 10 0 60424 63000.00000 0 -17120866.563 12107951.690 14536589.788 10 0 60424 63900.00000 0 -18624959.530 12737660.705 11897921.764 10 0 60424 64800.00000 0 -19765420.204 13348246.905 9028156.563 10 0 60424 65700.00000 0 -20530979.841 13881706.522 5982890.211 10 0 60424 66600.00000 0 -20923620.820 14280582.287 2821228.617 10 0 60424 67500.00000 0 -20958329.166 14490571.214 -395357.943 10 0 60424 68400.00000 0 -20662312.306 14463019.866 -3604234.774 10 0 60424 69300.00000 0 -20073713.664 14157199.501 -6742833.150 10 0 60424 70200.00000 0 -19239877.484 13542262.117 -9749885.947 10 0 60424 71100.00000 0 -18215237.045 12598791.504 -12566642.710 10 0 60424 72000.00000 0 -17058916.086 11319880.488 -15138038.354 10 0 60424 72900.00000 0 -15832146.074 9711685.780 -17413790.547 10 0 60424 73800.00000 0 -14595610.194 7793434.374 -19349402.270 10 0 60424 74700.00000 0 -13406828.286 5596879.238 -20907048.099 10 0 60424 75600.00000 0 -12317695.199 3165225.907 -22056325.490 10 0 60424 76500.00000 0 -11372278.197 551574.558 -22774855.407 10 0 60424 77400.00000 0 -10604967.642 -2183056.952 -23048720.079 10 0 60424 78300.00000 0 -10039059.562 -4972045.568 -22872729.399 10 0 60424 79200.00000 0 -9685829.717 -7745713.402 -22250511.263 10 0 60424 80100.00000 0 -9544137.344 -10434008.239 -21194424.975 10 0 60424 81000.00000 0 -9600573.699 -12969201.415 -19725300.650 10 0 60424 81900.00000 0 -9830147.042 -15288489.911 -17872011.119 10 0 60424 82800.00000 0 -10197472.737 -17336394.063 -15670886.280 10 0 60424 83700.00000 0 -10658415.682 -19066851.526 -13164982.972 10 0 60424 84600.00000 0 -11162113.311 -20444921.416 -10403226.155 10 0 60424 85500.00000 0 -11653291.596 -21448029.507 -7439439.689 10 0 60425 0.00000 0 -12074774.607 -22066704.971 -4331287.116 10 0 60425 900.00000 0 -12370080.791 -22304781.101 -1139142.418 10 0 60425 1800.00000 0 -12485995.423 -22179053.988 2075082.422 10 0 60425 2700.00000 0 -12375011.702 -21718417.562 5249135.552 10 0 60425 3600.00000 0 -11997537.715 -20962512.978 8321621.902 10 0 60425 4500.00000 0 -11323777.704 -19959951.395 11233177.429 10 0 60425 5400.00000 0 -10335209.790 -18766185.864 13927599.079 10 0 60425 6300.00000 0 -9025599.300 -17441121.893 16352910.154 10 0 60425 7200.00000 0 -7401506.160 -16046566.373 18462342.327 10 0 60425 8100.00000 0 -5482265.531 -14643620.426 20215217.369 10 0 60425 9000.00000 0 -3299442.216 -13290123.474 21577713.642 10 0 60425 9900.00000 0 -895780.555 -12038253.244 22523504.454 10 0 60425 10800.00000 0 1676308.247 -10932379.798 23034257.527 10 0 60425 11700.00000 0 4356661.007 -10007261.216 23099987.034 10 0 60425 12600.00000 0 7079603.032 -9286654.771 22719251.858 10 0 60425 13500.00000 0 9776424.449 -8782400.719 21899196.037 10 0 60425 14400.00000 0 12377992.834 -8494016.857 20655429.672 10 0 60425 15300.00000 0 14817396.557 -8408821.472 19011751.071 10 0 60425 16200.00000 0 17032511.377 -8502580.802 16999713.412 10 0 60425 17100.00000 0 18968385.139 -8740655.664 14658041.916 10 0 60425 18000.00000 0 20579341.885 -9079601.085 12031910.294 10 0 60425 18900.00000 0 21830717.437 -9469153.612 9172088.096 10 0 60425 19800.00000 0 22700152.890 -9854524.121 6133973.401 10 0 60425 20700.00000 0 23178390.242 -10178900.337 2976528.121 10 0 60425 21600.00000 0 23269534.795 -10386053.494 -238864.295 10 0 60425 22500.00000 0 22990771.289 -10422938.108 -3449596.719 10 0 60425 23400.00000 0 22371543.870 -10242173.220 -6593067.839 10 0 60425 24300.00000 0 21452233.122 -9804297.641 -9607918.156 10 0 60425 25200.00000 0 20282385.267 -9079700.802 -12435246.683 10 0 60425 26100.00000 0 18918568.274 -8050144.253 -15019782.536 10 0 60425 27000.00000 0 17421946.147 -6709806.290 -17310986.384 10 0 60425 27900.00000 0 15855675.088 -5065802.618 -19264058.180 10 0 60425 28800.00000 0 14282233.157 -3138158.726 -20840829.596 10 0 60425 29700.00000 0 12760797.951 -959233.373 -22010522.270 10 0 60425 30600.00000 0 11344784.573 1427383.552 -22750356.065 10 0 60425 31500.00000 0 10079649.044 3968452.774 -23045994.960 10 0 60425 32400.00000 0 9001050.425 6603080.303 -22891821.880 10 0 60425 33300.00000 0 8133449.101 9265040.715 -22291037.603 10 0 60425 34200.00000 0 7489199.516 11885330.782 -21255582.698 10 0 60425 35100.00000 0 7068174.062 14394845.667 -19805885.207 10 0 60425 36000.00000 0 6857931.820 16727065.075 -17970440.457 10 0 60425 36900.00000 0 6834422.455 18820636.686 -15785232.754 10 0 60425 37800.00000 0 6963192.715 20621749.166 -13293011.882 10 0 60425 38700.00000 0 7201041.763 22086196.385 -10542440.115 10 0 60425 39600.00000 0 7498052.838 23181048.032 -7587127.865 10 0 60425 40500.00000 0 7799913.227 23885858.846 -4484578.068 10 0 60425 41400.00000 0 8050422.911 24193368.425 -1295060.862 10 0 60425 42300.00000 0 8194084.996 24109665.115 1919558.821 10 0 60425 43200.00000 0 8178668.254 23653810.014 5097017.700 10 0 60425 44100.00000 0 7957634.032 22856939.456 8175851.588 10 0 60425 45000.00000 0 7492326.067 21760885.790 11096571.234 10 0 60425 45900.00000 0 6753832.189 20416375.716 13802794.905 10 0 60425 46800.00000 0 5724440.880 18880882.362 16242317.330 10 0 60425 47700.00000 0 4398632.661 17216220.812 18368096.155 10 0 60425 48600.00000 0 2783565.447 15485986.717 20139138.885 10 0 60425 49500.00000 0 899033.640 13752943.333 21521275.280 10 0 60425 50400.00000 0 -1223097.929 12076463.981 22487802.159 10 0 60425 51300.00000 0 -3539963.074 10510134.266 23019989.802 10 0 60425 52200.00000 0 -5999223.984 9099611.715 23107441.280 10 0 60425 53100.00000 0 -8541000.772 7880830.110 22748298.255 10 0 60425 54000.00000 0 -11100123.784 6878621.868 21949289.126 10 0 60425 54900.00000 0 -13608618.433 6105815.198 20725617.678 10 0 60425 55800.00000 0 -15998322.373 5562843.650 19100692.886 10 0 60425 56700.00000 0 -18203528.863 5237885.111 17105703.042 10 0 60425 57600.00000 0 -20163548.288 5107525.639 14779040.061 10 0 60425 58500.00000 0 -21825082.150 5137921.991 12165582.582 10 0 60425 59400.00000 0 -23144310.627 5286415.737 9315849.352 10 0 60425 60300.00000 0 -24088605.665 5503532.617 6285037.180 10 0 60425 61200.00000 0 -24637796.369 5735283.960 3131960.592 10 0 60425 62100.00000 0 -24784931.542 5925673.464 -82087.158 10 0 60425 63000.00000 0 -24536505.097 6019302.957 -3294529.780 10 0 60425 63900.00000 0 -23912132.596 5963965.652 -6442736.509 10 0 60425 64800.00000 0 -22943690.681 5713115.053 -9465258.419 10 0 60425 65700.00000 0 -21673954.362 5228102.285 -12303046.719 10 0 60425 66600.00000 0 -20154789.034 4480084.036 -14900627.173 10 0 60425 67500.00000 0 -18444973.630 3451517.163 -17207205.560 10 0 60425 68400.00000 0 -16607747.556 2137173.701 -19177680.512 10 0 60425 69300.00000 0 -14708186.159 544630.752 -20773542.016 10 0 60425 70200.00000 0 -12810516.966 -1305787.499 -21963636.594 10 0 60425 71100.00000 0 -10975491.361 -3381614.587 -22724783.172 10 0 60425 72000.00000 0 -9257923.757 -5639368.591 -23042227.095 10 0 60425 72900.00000 0 -7704502.701 -8026153.631 -22909923.429 10 0 60425 73800.00000 0 -6351966.218 -10481668.314 -22330644.483 10 0 60425 74700.00000 0 -5225717.646 -12940536.000 -21315910.321 10 0 60425 75600.00000 0 -4338938.826 -15334858.221 -19885744.815 10 0 60425 76500.00000 0 -3692235.929 -17596883.434 -18068263.413 10 0 60425 77400.00000 0 -3273830.209 -19661678.639 -15899102.254 10 0 60425 78300.00000 0 -3060282.617 -21469691.878 -13420701.402 10 0 60425 79200.00000 0 -3017718.555 -22969098.673 -10681457.735 10 0 60425 80100.00000 0 -3103498.073 -24117835.131 -7734765.562 10 0 60425 81000.00000 0 -3268258.221 -24885234.131 -4637964.935 10 0 60425 81900.00000 0 -3458239.150 -25253198.188 -1451219.167 10 0 60425 82800.00000 0 -3617794.139 -25216862.236 1763655.859 10 0 60425 83700.00000 0 -3691976.735 -24784721.235 4944387.553 10 0 60425 84600.00000 0 -3629095.689 -23978219.738 8029444.599 10 0 60425 85500.00000 0 -3383130.443 -22830822.858 10959214.393 10 0 60426 0.00000 0 -2915906.402 -21386609.329 13677138.019 10 0 60426 900.00000 0 -2198939.421 -19698445.689 16130783.702 10 0 60426 1800.00000 0 -1214873.860 -17825820.044 18272836.206 10 0 60426 2700.00000 0 41545.905 -15832422.682 20061989.961 10 0 60426 3600.00000 0 1563010.200 -13783574.873 21463727.058 10 0 60426 4500.00000 0 3329704.804 -11743610.376 22450968.496 10 0 60426 5400.00000 0 5309896.113 -9773316.396 23004587.489 10 0 60426 6300.00000 0 7461018.068 -7927538.022 23113776.095 10 0 60426 7200.00000 0 9731217.983 -6253043.525 22776258.567 10 0 60426 8100.00000 0 12061299.918 -4786737.392 21998347.210 10 0 60426 9000.00000 0 14386987.970 -3554294.160 20794838.796 10 0 60426 9900.00000 0 16641418.539 -2569269.356 19188752.029 10 0 60426 10800.00000 0 18757760.715 -1832724.751 17210909.149 10 0 60426 11700.00000 0 20671857.951 -1333384.323 14899367.353 10 0 60426 12600.00000 0 22324782.300 -1048315.687 12298708.539 10 0 60426 13500.00000 0 23665195.103 -944109.939 9459198.706 10 0 60426 14400.00000 0 24651414.953 -978511.834 6435831.168 10 0 60426 15300.00000 0 25253105.011 -1102432.917 3287270.565 10 0 60426 16200.00000 0 25452506.864 -1262263.372 74717.235 10 0 60426 17100.00000 0 25245166.712 -1402384.930 -3139286.253 10 0 60426 18000.00000 0 24640120.754 -1467777.724 -6292082.614 10 0 60426 18900.00000 0 23659529.661 -1406609.102 -9322136.383 10 0 60426 19800.00000 0 22337775.635 -1172692.462 -12170253.695 10 0 60426 20700.00000 0 20720058.861 -727709.129 -14780759.452 10 0 60426 21600.00000 0 18860552.044 -43096.107 -17102606.751 10 0 60426 22500.00000 0 16820191.016 898483.220 -19090394.792 10 0 60426 23400.00000 0 14664195.367 2102150.446 -20705273.468 10 0 60426 24300.00000 0 12459424.803 3560349.590 -21915715.468 10 0 60426 25200.00000 0 10271683.898 5252931.842 -22698139.759 10 0 60426 26100.00000 0 8163090.026 7147784.975 -23037373.718 10 0 60426 27000.00000 0 6189616.098 9201981.197 -22926944.884 10 0 60426 27900.00000 0 4398911.814 11363394.876 -22369197.072 10 0 60426 28800.00000 0 2828494.720 13572721.360 -21375229.440 10 0 60426 29700.00000 0 1504386.003 15765811.121 -19964660.887 10 0 60426 30600.00000 0 440246.503 17876220.212 -18165225.800 10 0 60426 31500.00000 0 -362953.189 19837869.106 -16012210.599 10 0 60426 32400.00000 0 -916717.737 21587697.837 -13547743.698 10 0 60426 33300.00000 0 -1244279.529 23068206.015 -10819954.340 10 0 60426 34200.00000 0 -1379353.463 24229771.617 -7882018.201 10 0 60426 35100.00000 0 -1364449.733 25032652.380 -4791109.683 10 0 60426 36000.00000 0 -1248818.557 25448587.464 -1607282.348 10 0 60426 36900.00000 0 -1086115.723 25461934.198 1607700.000 10 0 60426 37800.00000 0 -931888.899 25070294.583 4791558.506 10 0 60426 38700.00000 0 -840991.440 24284607.567 7882697.701 10 0 60426 39600.00000 0 -865032.697 23128705.438 10821384.483 10 0 60426 40500.00000 0 -1049971.584 21638354.584 13550885.880 10 0 60426 41400.00000 0 -1433953.612 19859821.917 16018545.074 10 0 60426 42300.00000 0 -2045481.015 17848027.213 18176776.653 10 0 60426 43200.00000 0 -2901991.592 15664358.079 19983963.912 10 0 60426 44100.00000 0 -4008904.930 13374237.407 21405242.941 10 0 60426 45000.00000 0 -5359175.622 11044542.765 22413160.285 10 0 60426 45900.00000 0 -6933372.509 8740982.682 22988193.142 10 0 60426 46800.00000 0 -8700281.847 6525536.317 23119123.227 10 0 60426 47700.00000 0 -10618011.145 4454060.300 22803257.642 10 0 60426 48600.00000 0 -12635550.276 2574159.877 22046492.397 10 0 60426 49500.00000 0 -14694727.849 923411.024 20863216.524 10 0 60426 50400.00000 0 -16732484.477 -471993.654 19276057.208 10 0 60426 51300.00000 0 -18683371.254 -1598119.266 17315468.846 10 0 60426 52200.00000 0 -20482171.800 -2453646.483 15019171.618 10 0 60426 53100.00000 0 -22066540.253 -3049697.007 12431447.933 10 0 60426 54000.00000 0 -23379545.886 -3409132.719 9602307.927 10 0 60426 54900.00000 0 -24372017.818 -3565356.444 6586538.031 10 0 60426 55800.00000 0 -25004590.503 -3560663.447 3442649.462 10 0 60426 56700.00000 0 -25249362.318 -3444212.152 231746.024 10 0 60426 57600.00000 0 -25091095.117 -3269699.420 -2983667.013 10 0 60426 58500.00000 0 -24527901.522 -3092838.987 -6140909.342 10 0 60426 59400.00000 0 -23571388.321 -2968750.991 -9178362.300 10 0 60426 60300.00000 0 -22246247.464 -2949374.967 -12036690.083 10 0 60426 61200.00000 0 -20589310.098 -3081018.427 -14660019.599 10 0 60426 62100.00000 0 -18648102.278 -3402147.674 -16997053.776 10 0 60426 63000.00000 0 -16478962.867 -3941517.341 -19002094.460 10 0 60426 63900.00000 0 -14144803.141 -4716720.618 -20635952.997 10 0 60426 64800.00000 0 -11712603.271 -5733223.856 -21866729.177 10 0 60426 65700.00000 0 -9250752.126 -6983928.168 -22670442.294 10 0 60426 66600.00000 0 -6826343.493 -8449277.692 -23031501.385 10 0 60426 67500.00000 0 -4502543.303 -10097910.419 -22943005.455 10 0 60426 68400.00000 0 -2336139.058 -11887824.002 -22406868.248 10 0 60426 69300.00000 0 -375374.318 -13768006.767 -21433765.955 10 0 60426 70200.00000 0 1341841.591 -15680464.280 -20042910.053 10 0 60426 71100.00000 0 2789275.013 -17562555.051 -18261651.110 10 0 60426 72000.00000 0 3953206.433 -19349536.042 -16124922.850 10 0 60426 72900.00000 0 4832733.617 -20977210.080 -13674538.952 10 0 60426 73800.00000 0 5439529.976 -22384563.432 -10958357.878 10 0 60426 74700.00000 0 5797071.804 -23516282.690 -8029333.555 10 0 60426 75600.00000 0 5939370.399 -24325045.785 -4944471.718 10 0 60426 76500.00000 0 5909265.663 -24773492.007 -1763713.295 10 0 60426 77400.00000 0 5756355.775 -24835789.868 1451232.667 10 0 60426 78300.00000 0 5534652.239 -24498738.925 4638083.507 10 0 60426 79200.00000 0 5300060.401 -23762361.402 7735181.823 10 0 60426 80100.00000 0 5107792.063 -22639960.830 10682675.968 10 0 60426 81000.00000 0 5009818.922 -21157646.983 13423660.362 10 0 60426 81900.00000 0 5052473.095 -19353348.178 15905255.032 10 0 60426 82800.00000 0 5274294.407 -17275352.789 18079605.234 10 0 60426 83700.00000 0 5704213.437 -14980440.617 19904783.905 10 0 60426 84600.00000 0 6360145.304 -12531680.961 21345581.591 10 0 60426 85500.00000 0 7248052.244 -9995987.322 22374170.524 10 0 60427 0.00000 0 8361513.889 -7441528.316 22970631.675 10 0 60427 900.00000 0 9681824.366 -4935098.279 23123336.067 10 0 60427 1800.00000 0 11178611.931 -2539557.371 22829172.865 10 0 60427 2700.00000 0 12810959.336 -311440.260 22093620.841 10 0 60427 3600.00000 0 14528979.399 1701166.173 20930660.176 10 0 60427 4500.00000 0 16275783.532 3460390.885 19362525.254 10 0 60427 5400.00000 0 17989764.035 4939919.640 17419301.205 10 0 60427 6300.00000 0 19607097.555 6125853.209 15138369.624 10 0 60427 7200.00000 0 21064367.223 7017046.430 12563711.711 10 0 60427 8100.00000 0 22301195.083 7624912.915 9745079.846 10 0 60427 9000.00000 0 23262774.911 7972702.236 6737051.511 10 0 60427 9900.00000 0 23902198.522 8094278.524 3597982.233 10 0 60427 10800.00000 0 24182476.291 8032450.731 388876.882 10 0 60427 11700.00000 0 24078164.642 7836924.244 -2827799.108 10 0 60427 12600.00000 0 23576529.173 7561960.337 -5989344.971 10 0 60427 13500.00000 0 22678191.470 7263843.099 -9034061.369 10 0 60427 14400.00000 0 21397229.521 6998262.515 -11902472.951 10 0 60427 15300.00000 0 19760725.068 6817726.586 -14538510.828 10 0 60427 16200.00000 0 17807775.191 6769114.631 -16890629.707 10 0 60427 17100.00000 0 15588008.670 6891478.142 -18912835.773 10 0 60427 18000.00000 0 13159669.328 7214184.991 -20565603.257 10 0 60427 18900.00000 0 10587347.295 7755487.917 -21816660.255 10 0 60427 19800.00000 0 7939454.401 8521579.751 -22641627.351 10 0 60427 20700.00000 0 5285550.823 9506176.553 -23024495.967 10 0 60427 21600.00000 0 2693636.260 10690646.866 -22957937.027 10 0 60427 22500.00000 0 227520.035 12044681.545 -22443434.337 10 0 60427 23400.00000 0 -2055619.276 13527475.256 -21491240.894 10 0 60427 24300.00000 0 -4107382.717 15089368.757 -20120160.124 10 0 60427 25200.00000 0 -5889919.366 16673881.439 -18357157.744 10 0 60427 26100.00000 0 -7377241.924 18220047.134 -16236813.352 10 0 60427 27000.00000 0 -8556036.838 19664953.586 -13800624.089 10 0 60427 27900.00000 0 -9425938.047 20946377.776 -11096175.522 10 0 60427 28800.00000 0 -9999256.243 22005405.651 -8176197.455 10 0 60427 29700.00000 0 -10300178.638 22788926.093 -5097524.384 10 0 60427 30600.00000 0 -10363476.296 23251894.806 -1919981.901 10 0 60427 31500.00000 0 -10232776.557 23359274.009 1294778.483 10 0 60427 32400.00000 0 -9958475.755 23087567.962 4484473.105 10 0 60427 33300.00000 0 -9595381.947 22425891.587 7587385.395 10 0 60427 34200.00000 0 -9200187.842 21376529.199 10543547.857 10 0 60427 35100.00000 0 -8828880.504 19954961.567 13295884.894 10 0 60427 36000.00000 0 -8534196.182 18189361.451 15791295.810 10 0 60427 36900.00000 0 -8363226.188 16119579.394 17981658.794 10 0 60427 37800.00000 0 -8355272.859 13795662.066 19824738.493 10 0 60427 38700.00000 0 -8540044.075 11275964.089 21284981.754 10 0 60427 39600.00000 0 -8936260.687 8624930.371 22334188.081 10 0 60427 40500.00000 0 -9550734.318 5910638.910 22952043.590 10 0 60427 41400.00000 0 -10377953.971 3202203.387 23126509.367 10 0 60427 42300.00000 0 -11400199.312 567140.442 22854057.368 10 0 60427 43200.00000 0 -12588177.312 -1931192.039 22139749.294 10 0 60427 44100.00000 0 -13902157.744 -4235981.936 20997156.153 10 0 60427 45000.00000 0 -15293562.685 -6299078.155 19448118.712 10 0 60427 45900.00000 0 -16706946.442 -8082747.582 17522351.502 10 0 60427 46800.00000 0 -18082285.875 -9561001.258 15256895.699 10 0 60427 47700.00000 0 -19357487.587 -10720434.262 12695428.981 10 0 60427 48600.00000 0 -20471008.662 -11560543.475 9887443.260 10 0 60427 49500.00000 0 -21364481.817 -12093508.628 6887303.999 10 0 60427 50400.00000 0 -21985234.527 -12343444.379 3753207.734 10 0 60427 51300.00000 0 -22288595.024 -12345153.470 546056.903 10 0 60427 52200.00000 0 -22239886.089 -12142432.436 -2671726.481 10 0 60427 53100.00000 0 -21816019.927 -11786000.864 -5837424.813 10 0 60427 54000.00000 0 -21006623.836 -11331141.896 -8889261.667 10 0 60427 54900.00000 0 -19814646.108 -10835154.699 -11767625.632 10 0 60427 55800.00000 0 -18256413.702 -10354728.380 -14416255.317 10 0 60427 56700.00000 0 -16361136.958 -9943350.665 -16783360.236 10 0 60427 57600.00000 0 -14169880.475 -9648863.563 -18822653.546 10 0 60427 58500.00000 0 -11734042.604 -9511272.030 -20494274.499 10 0 60427 59400.00000 0 -9113407.287 -9560900.714 -21765581.026 10 0 60427 60300.00000 0 -6373850.514 -9816978.683 -22611795.858 10 0 60427 61200.00000 0 -3584798.520 -10286713.297 -23016492.946 10 0 60427 62100.00000 0 -816545.299 -10964893.015 -22971914.586 10 0 60427 63000.00000 0 1862457.223 -11834035.879 -22479113.465 10 0 60427 63900.00000 0 4388222.261 -12865076.724 -21547917.631 10 0 60427 64800.00000 0 6703654.574 -14018562.964 -20196720.244 10 0 60427 65700.00000 0 8760679.239 -15246306.960 -18452099.561 10 0 60427 66600.00000 0 10521984.925 -16493423.656 -16348278.134 10 0 60427 67500.00000 0 11962310.710 -17700665.940 -13926433.401 10 0 60427 68400.00000 0 13069225.217 -18806957.897 -11233874.688 10 0 60427 69300.00000 0 13843368.524 -19752018.204 -8323104.204 10 0 60427 70200.00000 0 14298150.187 -20478962.639 -5250781.685 10 0 60427 71100.00000 0 14458919.579 -20936776.130 -2076613.897 10 0 60427 72000.00000 0 14361646.703 -21082550.900 1137808.566 10 0 60427 72900.00000 0 14051171.837 -20883397.603 4330204.212 10 0 60427 73800.00000 0 13579099.846 -20317950.575 7438800.197 10 0 60427 74700.00000 0 13001429.204 -19377405.545 10403515.703 10 0 60427 75600.00000 0 12376016.036 -18066047.874 13167107.233 10 0 60427 76500.00000 0 11759979.578 -16401250.433 15676255.043 10 0 60427 77400.00000 0 11207157.178 -14412942.039 17882571.465 10 0 60427 78300.00000 0 10765714.248 -12142568.782 19743513.610 10 0 60427 79200.00000 0 10476007.731 -9641590.942 21223184.934 10 0 60427 80100.00000 0 10368790.971 -6969576.706 22293012.105 10 0 60427 81000.00000 0 10463833.774 -4191969.865 22932285.856 10 0 60427 81900.00000 0 10769014.560 -1377621.518 23128556.607 10 0 60427 82800.00000 0 11279922.433 1403814.735 22877877.920 10 0 60427 83700.00000 0 11979986.459 4084519.156 22184893.056 10 0 60427 84600.00000 0 12841128.179 6601067.324 21062762.305 10 0 60427 85500.00000 0 13824912.096 8896812.794 19532931.118 99